User: anonymous   Login
Location: Unspecified
(0.0000°N, 0.0000°E)
Time: 15:38:17
(UTC+00:00)
Language:

IRVINE01 - Orbit

View from above orbital plane
View from above orbital plane
View from above satellite
View from above satellite

Ground track
Ground track

The orbit data is extracted from the following two-line orbital elements,

1 43693U 18088D   21333.61624780  .00011386  00000-0  41552-3 0  9995
2 43693  85.0327  85.0112 0016821 130.6781 229.5929 15.27861865169635
Epoch (UTC): 29 November 2021 14:47:23
Eccentricity: 0.0016821
inclination: 85.0327°
perigee height: 470 km
apogee height: 494 km
right ascension of ascending node: 85.0112°
argument of perigee: 130.6781°
revolutions per day: 15.27861865
mean anomaly at epoch: 229.5929°
orbit number at epoch: 16963

The dashed part of the orbit path shows where the satellite is in the earth's shadow,  

DLR